Regional Weather Roundup
Issued by NWS Cleveland, OH

Home | Current Version | Previous Version | Graphics & Text | Print | Product List | Glossary On
Versions: 1 2 3 4 5 6 7 8 9 10 11 12 13 14 15 16 17 18 19 20 21 22 23 24 25 26 27 28 29 30 31 32 33 34 35 36 37 38 39 40 41 42 43 44 45 46 47 48 49 50
000
ASUS41 KCLE 290000
RWRCLE
OHIO REGIONAL WEATHER ROUNDUP
NATIONAL WEATHER SERVICE WILMINGTON, OH
800 PM EDT THU JUL 28 2016

NOTE: "FAIR" INDICATES FEW OR NO CLOUDS BELOW 12,000 FEET WITH NO
SIGNIFICANT WEATHER AND/OR OBSTRUCTIONS TO VISIBILITY.

OHZ001>008-015>018-024>027-034-035-043-044-290100-
   NORTHWEST OHIO

CITY           SKY/WX    TMP DP  RH WIND       PRES   REMARKS
DEFIANCE       FAIR      85  66  53 NE3       29.89R
FINDLAY        FAIR      80  63  55 E6        29.89R
TOLEDO EXPRESS MOCLDY    82  68  62 NE5       29.89R
TOLEDO EXEC    FAIR      82  71  69 E5        29.90R
LIMA           FAIR      81  69  67 N6        29.89R
$$

OHZ009>014-019>023-028>033-038-089-290100-
   NORTHEAST OHIO

CITY           SKY/WX    TMP DP  RH WIND       PRES   REMARKS
CLE-HOPKINS    CLOUDY    80  65  59 N7        29.91R
CLE-LAKEFRONT  FAIR      79  71  76 N10       29.88R
CUY CO. ARPT   PTCLDY    81  70  69 NE6       29.89S
LORAIN-ELYRIA  FAIR      78  59  51 NE8       29.90R
ASHTABULA      FAIR      76  68  76 SE5       29.91R
AKRON-CANTON   MOCLDY    76  67  73 S5        29.91R
WOOSTER        NOT AVBL
MANSFIELD      CLOUDY    80  68  66 CALM      29.91R
YOUNGSTOWN     CLOUDY    74  67  78 SE5       29.91R
$$

OHZ042-051>053-060>062-070>072-077>081-290100-
  SOUTHWEST OHIO

CITY           SKY/WX    TMP DP  RH WIND       PRES   REMARKS
CINC-COVINGTON MOCLDY    79  72  79 W6        29.90R
CINC-LUNKEN    FAIR      79  73  82 SW3       29.89R
HAMILTON       FAIR      79  73  82 W3        29.90R
DAYTON         NOT AVBL
WRIGHT-PAT AFB NOT AVBL
DAYTON GENERAL MOCLDY    80  69  69 S5        29.89R
WILMINGTON     FAIR      77  71  82 S5        29.89R
$$

OHZ036-037-039>041-045>050-054>059-063>069-073>076-082>088-290100-
  CENTRAL AND SOUTHEAST OHIO

CITY           SKY/WX    TMP DP  RH WIND       PRES   REMARKS
COLUMBUS       TSTM      74  70  87 W16       29.89R FOG
OSU AIRPORT    TSTM      72  70  93 S8        29.89R
BOLTON FIELD   NOT AVBL
RICKENBACK AFB NOT AVBL
NEWARK         MOCLDY    73  71  93 CALM      29.89R
MARION         FAIR      82  66  58 CALM      29.90R
LANCASTER      CLOUDY    77  72  84 SW3       29.89R
ZANESVILLE     FAIR      77  72  84 SE3       29.90R
NEW PHILLY     CLOUDY    74  69  85 CALM      29.91R
$$




USA.gov is the U.S. government's official web portal to all federal, state and local government web resources and services.